User: anonymous   Login
Location: ???????
(55.4362°N, 38.1183°E)
Time: 07:11:53
(UTC+00:00)
Language:

Cosmos 1656 Rocket - Orbit

View from above orbital plane
View from above orbital plane
View from above satellite
View from above satellite

Ground track
Ground track

The orbit data is extracted from the following two-line orbital elements,

1 15772U 85042D   21265.37422425  .00000021  00000-0  31286-4 0  9993
2 15772  71.1067 287.7276 0033966 143.3782 228.0655 14.21300760882842
Epoch (UTC): 22 September 2021 08:58:52
Eccentricity: 0.0033966
inclination: 71.1067°
perigee height: 796 km
apogee height: 845 km
right ascension of ascending node: 287.7276°
argument of perigee: 143.3782°
revolutions per day: 14.21300760
mean anomaly at epoch: 228.0655°
orbit number at epoch: 88284

The dashed part of the orbit path shows where the satellite is in the earth's shadow,  

DLR